This demonstration page uses our WeatherBlox Daily Observations layout. Learn more.

Hourly Observations for December 25, 2017

Temp ( °F °C ) Dew Point ( °F °C ) Humidity (%) Winds ( mph kmh ) Pressure ( in mb ) Visibility ( mi km ) Precip ( " mm )
12:54 am 00:54 Clear 8 -13.3 0 -17.8 69 69 Calm 30.42 1030 10 16.0934 0 0
1:54 am 01:54 Clear 11 -11.7 2 -16.7 67 67 WNW 8 13 30.42 1030 10 16.0934 0 0
2:54 am 02:54 Clear 13 -10.6 3 -16.1 64 64 WNW 9 15 30.43 1030 10 16.0934 0 0
3:54 am 03:54 Clear 16 -8.9 4 -15.6 59 59 NNW 12 19 30.41 1030 10 16.0934 0 0
4:54 am 04:54 Mostly Cloudy 16 -8.9 4 -15.6 59 59 NW 13 20 30.41 1030 10 16.0934 0 0
5:54 am 05:54 Clear 15 -9.4 4 -15.6 61 61 NW 8 13 30.42 1030 10 16.0934 0 0
6:54 am 06:54 Mostly Cloudy 13 -10.6 4 -15.6 67 67 NW 6 9 30.45 1031 10 16.0934 0 0
7:54 am 07:54 Mostly Cloudy 11 -11.7 3 -16.1 70 70 Calm 30.47 1032 10 16.0934 0 0
8:54 am 08:54 Mostly Cloudy 10 -12.2 4 -15.6 76 76 NNW 5 7 30.5 1033 10 16.0934 0 0
9:54 am 09:54 Partly Cloudy 14 -10 4 -15.6 64 64 N 15 24 30.51 1033 10 16.0934 0 0
10:54 am 10:54 Partly Cloudy 15 -9.4 3 -16.1 59 59 N 13 20 30.53 1034 10 16.0934 0 0
11:54 am 11:54 Cloudy 15 -9.4 4 -15.6 61 61 NNE 21 33 30.5 1033 10 16.0934 0 0
12:54 pm 12:54 Mostly Sunny 13 -10.6 0 -17.8 56 56 N 13 20 30.5 1033 10 16.0934 0 0
1:54 pm 13:54 Cloudy 13 -10.6 -2 -18.9 51 51 N 12 19 30.5 1033 10 16.0934 0 0
2:54 pm 14:54 Cloudy 10 -12.2 -5 -20.6 50 50 NE 16 26 30.49 1032 10 16.0934 0 0
3:54 pm 15:54 Cloudy 9 -12.8 -4 -20 55 55 NNE 14 22 30.51 1033 10 16.0934 0 0
4:14 pm 16:14 Cloudy with Light Snow 8 -13.3 -2 -18.9 63 63 NNE 14 22 30.56 1035 1.75 2.816345 0 0.0254
4:33 pm 16:33 Cloudy with Light Snow 7 -13.9 -1 -18.3 70 70 NNE 12 19 30.56 1035 3 4.82802 0 0.0254
4:48 pm 16:48 Cloudy with Light Snow 7 -14 0 -18 72 72 N 12 19 30.56 1035 1.75 2.816345 0 0.0254
4:54 pm 16:54 Cloudy with Light Snow 7 -13.9 1 -17.2 76 76 N 13 20 30.53 1034 1.25 2.011675 0 0.0254
5:01 pm 17:01 Cloudy with Light Snow 6 -14.4 1 -17.2 79 79 N 13 20 30.56 1035 1 1.60934 0 0.0254
5:20 pm 17:20 Cloudy with Light Snow 6 -14.4 1 -17.2 79 79 N 9 15 30.56 1035 2.5 4.02335 0 0.0254
5:37 pm 17:37 Cloudy with Light Snow 6 -14.4 1 -17.2 79 79 N 10 17 30.59 1036 2.5 4.02335 0 0.0254
5:52 pm 17:52 Cloudy with Light Snow 7 -14 1 -17 78 78 N 10 17 30.59 1036 3 4.82802 0 0.0254
5:54 pm 17:54 Cloudy with Light Snow 6 -14.4 1 -17.2 79 79 N 10 17 30.55 1035 4 6.43736 0 0.0254
6:54 pm 18:54 Cloudy with Light Snow 6 -14.4 0 -17.8 76 76 N 12 19 30.58 1036 6 9.65604 0 0.0254
7:54 pm 19:54 Cloudy with Light Snow 6 -14.4 -1 -18.3 73 73 N 13 20 30.59 1036 6 9.65604 0 0.0254
8:54 pm 20:54 Cloudy with Light Snow 5 -15 -2 -18.9 72 72 N 9 15 30.61 1037 5 8.0467 0 0.0254
9:33 pm 21:33 Cloudy with Light Snow 5 -15 0 -17.8 79 79 N 9 15 30.68 1039 2.5 4.02335 0 0.0254
9:54 pm 21:54 Cloudy with Light Snow 5 -15 0 -17.8 79 79 N 8 13 30.6 1036 3 4.82802 0.01 0.254
10:54 pm 22:54 Cloudy with Light Snow 5 -15 0 -17.8 79 79 N 8 13 30.62 1037 4 6.43736 0 0.0254
11:54 pm 23:54 Cloudy 5 -15 -1 -18.3 76 76 N 10 17 30.63 1037 10 16.0934 0 0.0254

Powered by AerisWeather